Voltar ao catálogo

CZ-6A DEB

AtivoSSO
NORAD 54422·DEBRIS·🇨🇳 China

Lançado Nov 11, 2022 de Taiyuan Satellite Launch Center

Loading…

Próximas Passagens (próximas 24 horas)

TLE

AtualizadoSource: Space-Track

Época: Sep 14, 2026, 11:46 UTC

1 54422U 22151EW  26257.49096887  .00000389  00000-0  21077-3 0  9991
2 54422  98.8064 272.2389 0038345  99.2956 261.2558 14.17802307198280

Acompanhe CZ-6A DEB em tempo real com AllMySat

Download on the App Store